TimeCST,TemperatureF,Dew PointF,Humidity,Sea Level PressureIn,VisibilityMPH,Wind Direction,Wind SpeedMPH,Gust SpeedMPH,PrecipitationIn,Events,Conditions,WindDirDegrees,DateUTC
12:15 AM,8.6,5.0,85,29.87,7.0,NW,11.5,-,N/A,Snow,Light Snow,310,2013-01-30 06:15:00
12:35 AM,8.6,5.0,85,29.86,7.0,NW,12.7,-,N/A,Snow,Light Snow,310,2013-01-30 06:35:00
12:55 AM,8.6,5.0,85,29.85,7.0,NW,13.8,-,N/A,Snow,Light Snow,320,2013-01-30 06:55:00
1:15 AM,6.8,5.0,92,29.85,7.0,NW,12.7,-,N/A,Snow,Light Snow,310,2013-01-30 07:15:00
1:35 AM,6.8,3.2,85,29.84,10.0,NW,10.4,16.1,N/A,Snow,Light Snow,320,2013-01-30 07:35:00
1:55 AM,6.8,3.2,85,29.84,7.0,NW,10.4,-,N/A,Snow,Light Snow,320,2013-01-30 07:55:00
2:15 AM,6.8,3.2,85,29.83,5.0,NW,9.2,-,N/A,Snow,Light Snow,320,2013-01-30 08:15:00
2:35 AM,6.8,3.2,85,29.83,5.0,NW,10.4,17.3,N/A,Snow,Light Snow,320,2013-01-30 08:35:00
2:55 AM,6.8,1.4,79,29.83,5.0,NNW,15.0,-,N/A,Snow,Light Snow,330,2013-01-30 08:55:00
3:15 AM,5.0,1.4,85,29.82,7.0,NNW,13.8,-,N/A,Snow,Light Snow,330,2013-01-30 09:15:00
3:35 AM,5.0,1.4,85,29.82,5.0,NNW,15.0,18.4,N/A,Snow,Light Snow,330,2013-01-30 09:35:00
3:55 AM,3.2,1.4,92,29.82,5.0,NNW,11.5,17.3,N/A,Snow,Light Snow,340,2013-01-30 09:55:00
4:16 AM,3.2,-0.4,85,29.83,7.0,NNW,12.7,-,N/A,Snow,Light Snow,340,2013-01-30 10:16:00
4:35 AM,3.2,-0.4,85,29.85,7.0,NNW,11.5,-,N/A,Snow,Light Snow,340,2013-01-30 10:35:00
4:55 AM,1.4,-2.2,85,29.85,10.0,NNW,10.4,-,N/A,,Overcast,330,2013-01-30 10:55:00
5:16 AM,1.4,-2.2,85,29.86,10.0,NW,9.2,-,N/A,,Overcast,320,2013-01-30 11:16:00
5:35 AM,1.4,-2.2,85,29.86,10.0,NNW,9.2,-,N/A,,Overcast,330,2013-01-30 11:35:00
5:55 AM,1.4,-2.2,85,29.85,10.0,NNW,11.5,-,N/A,,Overcast,330,2013-01-30 11:55:00
6:16 AM,1.4,-2.2,85,29.85,10.0,NNW,11.5,-,N/A,,Overcast,330,2013-01-30 12:16:00
6:35 AM,1.4,-2.2,85,29.84,10.0,NNW,13.8,19.6,N/A,,Overcast,330,2013-01-30 12:35:00
6:55 AM,1.4,-2.2,85,29.84,10.0,NW,13.8,17.3,N/A,,Overcast,320,2013-01-30 12:55:00
7:16 AM,1.4,-2.2,85,29.84,10.0,NW,11.5,-,N/A,,Overcast,320,2013-01-30 13:16:00
7:35 AM,1.4,-2.2,85,29.84,10.0,NW,9.2,-,N/A,,Overcast,320,2013-01-30 13:35:00
7:55 AM,1.4,-2.2,85,29.84,10.0,NNW,11.5,-,N/A,,Overcast,330,2013-01-30 13:55:00
8:16 AM,1.4,-2.2,85,29.83,10.0,NNW,12.7,-,N/A,,Overcast,330,2013-01-30 14:16:00
8:35 AM,1.4,-2.2,85,29.83,10.0,NNW,13.8,-,N/A,,Overcast,340,2013-01-30 14:35:00
8:55 AM,1.4,-2.2,85,29.82,10.0,NNW,10.4,-,N/A,,Overcast,330,2013-01-30 14:55:00
9:15 AM,1.4,-2.2,85,29.82,10.0,NNW,11.5,-,N/A,,Overcast,330,2013-01-30 15:15:00
9:35 AM,3.2,-2.2,78,29.81,7.0,NNW,11.5,-,N/A,Snow,Light Snow,330,2013-01-30 15:35:00
9:56 AM,3.2,-0.4,85,29.82,5.0,NNW,10.4,-,N/A,,Overcast,330,2013-01-30 15:56:00
10:15 AM,3.2,-0.4,85,29.81,5.0,NNW,12.7,-,N/A,,Haze,330,2013-01-30 16:15:00
10:35 AM,3.2,-0.4,85,29.81,7.0,NNW,12.7,-,N/A,,Overcast,340,2013-01-30 16:35:00
10:55 AM,5.0,-0.4,78,29.81,7.0,NNW,13.8,-,N/A,,Overcast,340,2013-01-30 16:55:00
11:35 AM,6.8,-0.4,72,29.81,7.0,NNW,12.7,-,N/A,,Overcast,330,2013-01-30 17:35:00
11:55 AM,6.8,-0.4,72,29.80,5.0,NW,11.5,-,N/A,,Haze,310,2013-01-30 17:55:00
12:15 PM,8.6,1.4,73,29.80,7.0,NW,10.4,-,N/A,,Overcast,320,2013-01-30 18:15:00
12:35 PM,8.6,-0.4,67,29.79,10.0,WNW,12.7,16.1,N/A,,Overcast,300,2013-01-30 18:35:00
12:55 PM,8.6,-0.4,67,29.79,10.0,NW,12.7,-,N/A,,Overcast,320,2013-01-30 18:55:00
1:15 PM,6.8,-0.4,72,29.78,10.0,NW,13.8,-,N/A,,Overcast,310,2013-01-30 19:15:00
1:35 PM,6.8,-0.4,72,29.77,10.0,NW,12.7,-,N/A,,Overcast,310,2013-01-30 19:35:00
1:55 PM,6.8,-0.4,72,29.77,10.0,NW,11.5,-,N/A,,Overcast,310,2013-01-30 19:55:00
2:15 PM,6.8,1.4,79,29.77,2.5,NW,12.7,18.4,N/A,,Haze,310,2013-01-30 20:15:00
2:35 PM,6.8,-0.4,72,29.77,4.0,NW,11.5,-,N/A,,Haze,310,2013-01-30 20:35:00
2:55 PM,5.0,-0.4,78,29.77,2.5,NW,16.1,20.7,N/A,,Haze,310,2013-01-30 20:55:00
3:15 PM,3.2,-0.4,85,29.78,4.0,NW,12.7,19.6,N/A,,Haze,310,2013-01-30 21:15:00
3:35 PM,3.2,-2.2,78,29.78,4.0,NW,13.8,-,N/A,,Haze,310,2013-01-30 21:35:00
3:55 PM,3.2,-0.4,85,29.78,3.0,NW,15.0,18.4,N/A,Snow,Light Snow,320,2013-01-30 21:55:00
4:15 PM,3.2,-0.4,85,29.78,2.5,WNW,13.8,-,N/A,Snow,Light Snow,300,2013-01-30 22:15:00
4:35 PM,3.2,-2.2,78,29.78,3.0,NW,12.7,-,N/A,Snow,Light Snow,310,2013-01-30 22:35:00
4:55 PM,1.4,-2.2,85,29.78,4.0,WNW,9.2,-,N/A,Snow,Light Snow,300,2013-01-30 22:55:00
5:15 PM,1.4,-4.0,78,29.78,5.0,NW,12.7,-,N/A,,Haze,310,2013-01-30 23:15:00
5:35 PM,1.4,-2.2,85,29.78,3.0,NW,12.7,-,N/A,Snow,Light Snow,310,2013-01-30 23:35:00
5:55 PM,-0.4,-4.0,85,29.78,7.0,NW,12.7,19.6,N/A,,Overcast,310,2013-01-30 23:55:00
6:07 PM,-0.4,-4.0,85,29.79,7.0,NW,11.5,-,N/A,,Overcast,310,2013-01-31 00:07:00
6:21 PM,-0.4,-4.0,85,29.79,4.0,WNW,12.7,17.3,N/A,,Overcast,300,2013-01-31 00:21:00
6:41 PM,-0.4,-5.8,78,29.79,7.0,WNW,13.8,18.4,N/A,,Overcast,290,2013-01-31 00:41:00
7:01 PM,-2.2,-5.8,85,29.79,7.0,WNW,11.5,-,N/A,,Overcast,300,2013-01-31 01:01:00
7:21 PM,-2.2,-5.8,85,29.79,5.0,WNW,9.2,-,N/A,,Overcast,300,2013-01-31 01:21:00
8:01 PM,-2.2,-5.8,85,29.79,4.0,WNW,12.7,-,N/A,,Overcast,300,2013-01-31 02:01:00
8:21 PM,-2.2,-7.6,78,29.79,4.0,WNW,11.5,-,N/A,,Overcast,290,2013-01-31 02:21:00
8:37 PM,-2.2,-7.6,78,29.79,5.0,NW,11.5,-,N/A,,Overcast,310,2013-01-31 02:37:00
9:01 PM,-2.2,-7.6,78,29.79,3.0,WNW,9.2,-,N/A,,Overcast,290,2013-01-31 03:01:00
9:21 PM,-2.2,-7.6,78,29.79,3.0,WNW,13.8,-,N/A,,Overcast,300,2013-01-31 03:21:00
9:50 PM,-4.0,-7.6,85,29.80,3.0,NW,13.8,-,N/A,Snow,Light Snow,310,2013-01-31 03:50:00
9:55 PM,-4.0,-7.6,85,29.80,4.0,NW,12.7,-,N/A,Snow,Light Snow,310,2013-01-31 03:55:00
10:15 PM,-4.0,-9.4,78,29.80,3.0,NW,12.7,18.4,N/A,Snow,Light Snow,310,2013-01-31 04:15:00
10:35 PM,-5.8,-9.4,84,29.81,4.0,NW,11.5,-,N/A,Snow,Light Snow,310,2013-01-31 04:35:00
10:55 PM,-5.8,-9.4,84,29.81,5.0,NW,11.5,-,N/A,Snow,Light Snow,310,2013-01-31 04:55:00
11:15 PM,-5.8,-9.4,84,29.81,5.0,NW,13.8,18.4,N/A,Snow,Light Snow,310,2013-01-31 05:15:00
11:35 PM,-5.8,-9.4,84,29.82,5.0,NW,13.8,-,N/A,,Overcast,310,2013-01-31 05:35:00
11:55 PM,-5.8,-9.4,84,29.82,3.0,NW,12.7,-,N/A,Snow,Light Snow,310,2013-01-31 05:55:00